Location: Amherst
(42.3800°N, 72.5240°W)
Time: 01:28:50
(UTC-04:00)

ISS - Visible Passes

Search period start: 23 September 2017 00:00
Search period end: 03 October 2017 00:00
Orbit: 401 x 407 km, 51.6° (Epoch: 23 September)

Date Brightness Start Highest point End Pass type
(mag) Time Alt. Az. Time Alt. Az. Time Alt. Az.
23 Sep -1.4 20:03:15 10° S 20:03:33 11° SSE 20:03:33 11° SSE visible
24 Sep -1.6 20:45:56 10° SW 20:47:02 19° SW 20:47:02 19° SW visible
25 Sep -3.2 19:53:53 10° SSW 19:56:55 37° SE 19:57:33 33° ESE visible
26 Sep -2.9 20:37:45 10° WSW 20:40:32 47° WNW 20:40:32 47° WNW visible
27 Sep -3.9 19:45:17 10° SW 19:48:32 89° S 19:50:38 21° NE visible
27 Sep -0.5 21:22:43 10° WNW 21:23:18 13° WNW 21:23:18 13° WNW visible
28 Sep -2.2 20:29:52 10° W 20:32:48 29° NNW 20:33:15 28° N visible
29 Sep -2.8 19:37:07 10° WSW 19:40:16 43° NNW 19:43:04 12° NE visible
29 Sep -0.5 21:15:03 10° NW 21:15:43 13° NW 21:15:43 13° NW visible
30 Sep -1.7 20:22:09 10° WNW 20:24:41 20° NNW 20:25:27 19° N visible
01 Oct -2.0 19:29:14 10° W 19:32:03 26° NNW 19:34:53 10° NE visible
01 Oct -0.6 21:07:11 10° NW 21:07:43 12° NNW 21:07:43 12° NNW visible
02 Oct -1.5 20:14:23 10° NW 20:16:37 17° N 20:17:19 16° N visible
